Regional Weather Roundup
Issued by NWS Portland, ME

Current Version | Previous Version | Text Only | Print | Product List | Glossary Off
Versions: 1 2 3 4 5 6 7 8 9 10 11 12 13 14 15 16 17 18 19 20 21 22 23 24 25 26 27 28 29 30 31 32 33 34 35 36 37 38 39 40 41 42 43 44 45 46 47 48 49 50
000 ASUS41 KGYX 211910 RWRGYX WEATHER ROUNDUP FOR MAINE AND NEW HAMPSHIRE NATIONAL WEATHER SERVICE GRAY ME 300 PM EDT WED JUN 21 2017 MEZ002-005-006-010-012-015-018-020-021-024-026-027-029-212000- MAINE CITY SKY/WX TMP DP RH WIND PRES REMARKS PORTLAND MOSUNNY 81 50 33 W12G22 29.76F SANFORD PTSUNNY 79 53 40 W13G23 29.79S BAR HARBOR MOSUNNY 68 58 70 SW13 29.75R WISCASSET PTSUNNY 81 55 40 SW8G16 29.75F ROCKLAND PTSUNNY 76 61 59 SW9 29.74F FRYEBURG PTSUNNY 78 52 40 VRB7G16 29.78S LEWISTONAUBURN MOSUNNY 77 53 43 NW9G17 29.76F AUGUSTA SUNNY 76 52 43 W10G24 29.76F WATERVILLE SUNNY 75 54 47 W8G16 29.73F BANGOR CLOUDY 69 52 54 VRB5 29.75S GREENVILLE N/A 67 51 56 VRB3 29.73F MILLINOCKET MOSUNNY 71 58 63 VRB5 29.72F HOULTON CLOUDY 65 61 87 SW8 29.70F PRESQUE ISLE PTSUNNY 64 56 75 W10 29.68S FRENCHVILLE MOSUNNY 63 52 67 W14G28 29.64F CARIBOU LGT RAIN 67 57 70 W13G20 29.65F $$ NHZ002-005-008-009-011-012-014-212000- NEW HAMPSHIRE CITY SKY/WX TMP DP RH WIND PRES REMARKS PORTSMOUTH MOSUNNY 81 51 35 W13G22 29.78S ROCHESTER PTSUNNY 79 51 37 VRB3 29.79S NASHUA PTSUNNY 81 51 35 W17G24 29.82F MANCHESTER PTSUNNY 80 47 31 W13G25 29.80S CONCORD MOSUNNY 80 53 39 W14G22 29.81F LACONIA MOSUNNY N/A N/A N/A W15 29.82S PLYMOUTH PTSUNNY 75 48 38 W14G21 29.82S BERLIN CLOUDY 71 48 43 SW9 29.81S WHITEFIELD PTSUNNY 71 51 49 W14 29.83F JAFFREY MOSUNNY 76 48 37 W9G21 29.87S KEENE MOSUNNY 75 50 41 W13 29.85 LEBANON CLOUDY 75 50 41 W9 29.83S MT WASHINGTON CLOUDY 43 41 93 W48G54 N/A $$ VTZ005-007-008-212000- VERMONT CITY SKY/WX TMP DP RH WIND PRES REMARKS ST JOHNSBURY N/A 71 50 47 MISG 29.81S MONTPELIER PTSUNNY 68 50 52 W12G22 29.89R BURLINGTON PTSUNNY 75 52 44 W12 29.83S $$ MAZ007-012-024-CTZ003-RIZ002-NYZ038-NYZ072-212000- SOUTHERN NEW ENGLAND AND NY CITY SKY/WX TMP DP RH WIND PRES REMARKS BOSTON MOSUNNY 82 53 36 W17G24 29.79F WORCESTER PTSUNNY 78 49 35 W16G23 29.85F NANTUCKET FOG 65 64 97 SW18 29.89F VSB 1/2 PROVIDENCE MOSUNNY 83 56 39 W15G26 29.83F HARTFORD PTSUNNY 80 55 42 W12 29.84F ALBANY MOSUNNY 74 53 48 NW14G20 29.88F NEW YORK CITY PTSUNNY 85 52 32 W15G26 29.87F $$ ANZ081-ANZ082-ANZ150-NHZ014-MEZ023>029-212000- COASTAL MARINE OBSERVATIONS STATION/POSITION TIME TEMP WIND PRES WAVE AIR SEA DIR/SP/G HT/PER (UTC) (F) (DEG/KT/KT) (MB) (FT/S) MATINICUS ROCK 1800 59 210/ 20/ 20 1007.6F ISLE OF SHOALS 1800 75 260/ 18/ 19 1008.3F JEFFREYS LEDGE 1806 60 N/A 3/ 8 CASHES LEDGE BUO 1850 65 58 1008.6F 4/ 8 GEORGES BANK BUO 1850 59 56 1013.7F 5/ 8 $$ .............KEY.............. WCI - WIND CHILL TC - TEMPERATURE IN CELSIUS VSB - VISIBILITY IN MILES HX - HEAT INDEX FAIR- INDICATES FEW OR NO CLOUDS BELOW 12,000 FT, WITH NO SIGNIFICANT WEATHER AND/OR OBSTRUCTIONS TO VISIBILITY.

USA.gov is the U.S. government's official web portal to all federal, state and local government web resources and services.